www.pogodaiklimat.ru

Погода и климат >> Архив погоды >> Австралия >> Новый Южный Уэльс >> Фоулерс Гэп


ПОГОДА в Фоулерс Гэп

  • Прогноз погоды в Фоулерс Гэп
  • Монитор погоды в Фоулерс Гэп

АРХИВ ПОГОДЫ в Фоулерс Гэп

Время (UTC), дата Ветер
(напр.,м/с)
 
Видим.   Явления Облачность Т
(С)
Тd
(С)
f
(%)
Тe
(С)
Тes
(С)
Комфортность P
(гПа)
Po
(гПа)
Тmin
(С)
Tmax
(С)
R
(мм)
R24
(мм)
S
(см)
19 13.08 СЗ 2 н/о н/о +1.2 -6.6 56 -1 -1 1027.5 1005.6
20 13.08 штиль 0 н/о н/о +0.9 -6.6 57 0 0 1027.8 1005.9
22 13.08 штиль 0 н/о н/о +2.4 -6.2 53 +2 +2 1028.8 1006.8
23 13.08 В 1 н/о н/о +8.9 -1.5 48 +10 +10 1028.9 1006.9
01 14.08 СВ 5 н/о н/о +13.8 -1.4 35 +12 +12 1028.6 1006.6
02 14.08 СВ 4 н/о н/о +16.2 -0.5 32 +16 +16 1027.4 1005.5 -0.1
04 14.08 С 5 н/о н/о +18.0 -1.8 26 +18 +18 1025.2 1003.3
05 14.08 С 5 н/о н/о +18.8 -1.1 26 +19 +19 1024.6 1002.7
07 14.08 С 4 н/о н/о +18.0 -1.3 27 +18 +18 1024.0 1002.1
08 14.08 С 4 н/о н/о +16.9 -2.2 27 +16 +16 1024.1 1002.2
10 14.08 штиль 0 н/о н/о +11.3 -3.2 36 +11 +11 1024.9 1003.0
11 14.08 штиль 0 н/о н/о +9.7 -3.9 38 +10 +10 1025.0 1003.1
13 14.08 штиль 0 н/о н/о +8.6 -4.6 39 +9 +9 1025.4 1003.5
14 14.08 штиль 0 н/о н/о +6.9 -5.4 41 +7 +7 1025.2 1003.3 +19.0
16 14.08 штиль 0 н/о н/о +4.5 -6.4 45 +4 +4 1024.9 1003.0
17 14.08 СЗ 1 н/о н/о +4.8 -6.4 44 +4 +4 1024.4 1002.5
19 14.08 Ю 2 н/о н/о +3.3 -6.6 48 +2 +2 1024.3 1002.4
20 14.08 В 2 н/о н/о +1.8 -7.2 51 -0 -0 1024.2 1002.3
22 14.08 ЮЗ 2 н/о н/о +4.0 -5.7 49 +2 +2 1025.2 1003.3
23 14.08 В 2 н/о н/о +12.6 -1.7 37 +12 +12 1025.3 1003.4
01 15.08 С 6 н/о н/о +17.7 -2.0 26 +17 +17 1025.0 1003.1
02 15.08 С 6 н/о н/о +19.5 -2.8 22 +19 +19 1024.2 1002.3 +1.5
04 15.08 С 5 н/о н/о +21.2 -4.8 17 +20 +20 1021.8 1000.0
05 15.08 С 6 н/о н/о +21.6 -4.5 17 +21 +21 комфорт 1020.9 999.1
07 15.08 С 5 н/о н/о +21.7 -6.9 14 +20 +20 1020.1 998.3
08 15.08 СЗ 4 н/о н/о +20.3 -8.0 14 +20 +20 1020.4 998.6
10 15.08 СЗ 2 н/о н/о +13.3 -8.5 21 +13 +13 1020.9 999.1
11 15.08 СЗ 2 н/о н/о +12.0 -8.5 23 +12 +12 1021.0 999.2
13 15.08 штиль 0 н/о н/о +9.3 -9.2 26 +9 +9 1021.0 999.2
14 15.08 штиль 0 н/о н/о +7.7 -9.6 28 +8 +8 1020.8 999.0 +22.6
16 15.08 З 1 н/о н/о +6.1 -9.7 31 +6 +6 1019.6 997.8
17 15.08 штиль 0 н/о н/о +4.2 -11.0 32 +4 +4 1018.9 997.2
19 15.08 ЮЗ 2 н/о н/о +6.2 -9.6 31 +5 +5 1019.0 997.3
20 15.08 З 1 н/о н/о +4.6 -10.3 33 +4 +4 1019.4 997.6
22 15.08 СЗ 3 н/о н/о +10.5 -8.2 26 +9 +9 1020.1 998.3
23 15.08 З 3 н/о н/о +13.6 -7.7 22 +13 +13 1020.6 998.8
01 16.08 СЗ 6 н/о н/о +21.5 -9.1 12 +20 +20 1020.0 998.2
02 16.08 СЗ 8 н/о н/о +22.7 -9.2 11 +21 +21 комфорт 1019.4 997.6 +3.0
04 16.08 З 7 н/о н/о +24.3 -10.6 9 +22 +22 комфорт 1018.1 996.4
05 16.08 З 5 н/о н/о +24.6 -10.3 9 +22 +22 комфорт 1017.7 996.0
07 16.08 З 5 н/о н/о +24.3 -9.2 10 +22 +22 комфорт 1017.6 995.9
08 16.08 З 4 н/о н/о +23.0 -9.0 11 +21 +21 комфорт 1017.8 996.1
10 16.08 штиль 0 н/о н/о +17.9 -8.2 16 +18 +18 1018.6 996.9
11 16.08 ЮВ 2 н/о н/о +18.1 -8.1 16 +19 +19 1019.2 997.4
13 16.08 штиль 0 н/о н/о +15.8 -7.7 19 +16 +16 1019.5 997.7
14 16.08 Ю 2 н/о н/о +14.7 -8.0 20 +15 +15 1019.5 997.7 +25.4
16 16.08 В 3 н/о н/о +15.0 -3.8 27 +15 +15 1018.9 997.2
17 16.08 ЮВ 4 н/о н/о +15.2 -0.5 34 +15 +15 1018.6 996.9
19 16.08 ЮВ 5 н/о н/о +14.0 +1.3 42 +13 +13 1017.9 996.2
20 16.08 ЮВ 6 н/о н/о +14.1 +3.3 48 +12 +12 1018.5 996.8
22 16.08 ЮВ 4 н/о н/о +12.7 +3.1 52 +11 +11 1019.9 998.1
23 16.08 ЮВ 5 н/о н/о +13.9 +5.0 55 +12 +12 1020.1 998.3
01 17.08 В 4 н/о н/о +16.6 +5.6 48 +16 +16 1019.7 997.9
02 17.08 В 5 н/о н/о +18.2 +4.4 40 +18 +18 1018.6 996.9 +12.3
04 17.08 С 4 н/о н/о +22.9 +0.1 22 +22 +22 комфорт 1016.7 995.0
05 17.08 С 6 н/о н/о +24.5 -3.8 15 +23 +23 комфорт 1015.8 994.1
07 17.08 С 5 н/о н/о +24.2 -7.0 12 +22 +22 комфорт 1015.0 993.3
08 17.08 С 4 н/о н/о +22.7 -7.1 13 +21 +21 комфорт 1015.4 993.7
10 17.08 СВ 2 н/о н/о +17.8 -6.8 18 +18 +18 1015.7 994.0
11 17.08 СВ 4 н/о н/о +19.1 -9.0 14 +19 +19 1015.9 994.2
13 17.08 С 5 н/о н/о +19.7 -10.5 12 +19 +19 1015.4 993.7
14 17.08 С 6 н/о н/о +19.7 -10.5 12 +19 +19 1014.9 993.2 +25.3
16 17.08 С 7 н/о н/о +19.1 -9.0 14 +18 +18 1013.3 991.7
17 17.08 С 8 н/о н/о +18.0 -8.2 16 +17 +17 1012.6 991.0
19 17.08 С 9 н/о н/о +16.6 -7.1 19 +15 +15 1011.2 989.6
20 17.08 С 10 н/о н/о +16.6 -7.1 19 +15 +15 1010.9 989.3
22 17.08 С 7 н/о н/о +15.7 -4.2 25 +14 +14 1012.4 990.8
23 17.08 СЗ 7 н/о н/о +17.4 -5.1 21 +16 +16 1012.7 991.1
01 18.08 З 11 н/о н/о +19.7 +1.2 29 +19 +19 1013.0 991.4
02 18.08 З 12 н/о н/о +18.9 +2.3 33 +18 +18 1013.6 992.0 +15.0
04 18.08 З 11 н/о н/о +19.0 +2.0 32 +18 +18 1013.5 991.9
05 18.08 З 12 н/о н/о +18.8 -0.6 27 +18 +18 1013.5 991.9
07 18.08 З 10 н/о н/о +17.2 -6.6 19 +16 +16 1014.8 993.1
08 18.08 З 9 н/о н/о +15.8 -4.7 24 +14 +14 1015.8 994.1
10 18.08 З 5 н/о н/о +13.6 -3.6 30 +12 +12 1018.2 996.5
11 18.08 З 6 н/о н/о +12.9 -3.8 31 +11 +11 1019.0 997.3
13 18.08 ЮЗ 7 н/о н/о +11.1 +0.2 47 +8 +8 1020.2 998.4
14 18.08 ЮЗ 6 н/о н/о +10.1 +1.0 53 +7 +7 1020.6 998.8 +20.7
16 18.08 ЮЗ 7 н/о н/о +7.9 +2.2 67 +4 +4 1022.1 1000.3
17 18.08 ЮЗ 6 н/о н/о +7.1 +1.6 68 +3 +3 1022.3 1000.5
19 18.08 З 5 н/о н/о +5.1 +1.4 77 +1 +1 1023.3 1001.5
20 18.08 З 2 н/о н/о +4.5 +1.4 80 +2 +2 1024.2 1002.3
22 18.08 ЮЗ 4 н/о н/о +4.7 +1.0 77 +1 +1 1026.6 1004.7
23 18.08 ЮЗ 6 н/о н/о +7.8 +1.4 64 +4 +4 1027.7 1005.8
01 19.08 Ю 8 н/о н/о +11.8 -1.7 39 +9 +9 1028.8 1006.8
02 19.08 Ю 8 н/о н/о +12.6 -2.8 34 +10 +10 1028.3 1006.4 +3.6
04 19.08 Ю 6 н/о н/о +14.5 -3.8 28 +13 +13 1027.8 1005.9
05 19.08 Ю 6 н/о н/о +14.8 -4.0 27 +13 +13 1027.5 1005.6
07 19.08 ЮЗ 6 н/о н/о +14.7 -3.1 29 +13 +13 1027.7 1005.8
08 19.08 Ю 4 н/о н/о +13.8 -3.9 29 +13 +13 1028.6 1006.6
10 19.08 ЮЗ 2 н/о н/о +10.2 -4.6 35 +9 +9 1030.2 1008.2
11 19.08 штиль 0 н/о н/о +8.8 -4.7 38 +9 +9 1031.0 1009.0
13 19.08 СЗ 3 н/о н/о +7.3 -3.8 45 +5 +5 1032.0 1010.0
14 19.08 ЮЗ 1 н/о н/о +5.8 -4.6 47 +5 +5 1031.9 1009.9 +15.6
16 19.08 З 2 н/о н/о +4.7 -4.6 51 +3 +3 1031.6 1009.6
17 19.08 ЮЗ 3 н/о н/о +5.5 -3.6 52 +3 +3 1031.3 1009.3
19 19.08 Ю 2 н/о н/о +4.1 -2.7 61 +2 +2 1031.0 1009.0
20 19.08 ЮЗ 2 н/о н/о +4.7 -1.1 66 +3 +3 1031.8 1009.8
22 19.08 СЗ 2 н/о н/о +4.8 -1.6 63 +2 +2 1033.6 1011.5
23 19.08 ЮЗ 2 н/о н/о +8.2 +0.4 58 +7 +7 1034.0 1011.9
01 20.08 ЮЗ 3 н/о н/о +13.4 +2.9 49 +12 +12 1034.1 1012.0
02 20.08 ЮЗ 3 н/о н/о +14.7 +1.3 40 +14 +14 1033.3 1011.2 +2.7
04 20.08 ЮЗ 6 н/о н/о +16.2 +0.7 35 +15 +15 1031.5 1009.5
05 20.08 ЮЗ 5 н/о н/о +17.1 +1.1 34 +16 +16 1030.5 1008.5
07 20.08 З 7 н/о н/о +16.4 +1.3 36 +15 +15 1030.0 1008.0
08 20.08 ЮЗ 5 н/о н/о +15.5 +1.3 38 +14 +14 1029.9 1007.9
10 20.08 З 4 н/о н/о +12.2 +0.6 45 +11 +11 1030.3 1008.3
11 20.08 СЗ 3 н/о н/о +10.7 -0.1 47 +9 +9 1030.2 1008.2
13 20.08 З 3 н/о н/о +9.1 0.0 53 +7 +7 1030.2 1008.2
14 20.08 ЮЗ 5 н/о н/о +9.2 +0.9 56 +6 +6 1030.2 1008.2 +17.8
16 20.08 З 4 н/о н/о +7.8 +1.6 65 +5 +5 1029.7 1007.7
17 20.08 ЮЗ 4 н/о н/о +6.7 +1.4 69 +4 +4 1029.0 1007.0
19 20.08 З 3 н/о н/о +6.1 +2.0 75 +3 +3 1028.9 1006.9
20 20.08 ЮЗ 4 н/о н/о +6.9 +3.0 76 +3 +3 1029.0 1007.0

 

Местоположение метеостанции Фоулерс Гэп (Новый Южный Уэльс, Австралия): широта -31.08 долгота 141.70 высота над уровнем моря 181 м.

В архиве по умолчанию представлена погода в Фоулерс Гэп за последнюю неделю. Архивные данные за месяц целиком и за предыдущие месяцы, начиная с января 2011 года, Вы можете получить, выбрав интересующий диапазон дат из раскрывающегося списка и нажав кнопку "Ввод!".


*Определитесь, кто Вы:
робот инопланетянин человек

Внимание! Время в таблицах - всемирное. Для получения местного времени необходимо прибавить поправку, которая равна 10 ч.

Смотрите также архив погоды в соседних городах и на ближайших метеорологических станциях:

Погода в Брокен-Хилл аэропорту (Новый Южный Уэльс, Австралия) (105 км)
Погода в Уафт Клифс (Новый Южный Уэльс, Австралия) (133 км)
Погода в Уилкании (Новый Южный Уэльс, Австралия) (167 км)
Погода в Тибообере (Новый Южный Уэльс, Австралия) (184 км)
Погода в Юнте (Южная Австралия, Австралия) (261 км)
Погода в Ли-Крике (Южная Австралия, Австралия) (318 км)
Погода в Айванхо (Новый Южный Уэльс, Австралия) (318 км)
Погода в Милдьюре (Новый Южный Уэльс, Австралия) (352 км)
Погода в Ренмарке (Южная Австралия, Австралия) (360 км)
Погода в Мумбе (Южная Австралия, Австралия) (362 км)

Пояснения к столбцам:

Ветер - указаны скорость ветра в м/с - средняя за 10 мин, порывы в срок и между сроками (в фигурных скобках) и направление, откуда дует ветер: С - северный, СВ - северо-восточный, В - восточный, ЮВ - юго-восточный, Ю - южный, ЮЗ - юго-западный, З - западный, СЗ - северо-западный.
Видимость - горизонтальная дальность видимости в метрах или километрах. При видимости от 1 до 10 км при отсутствии осадков обычно наблюдается дымка, при ухудшении видимости до 1 км и менее - туман. В сухую погоду видимость может ухудшаться дымом, пылью или мглою.
Явления - указаны атмосферные явления, наблюдавшиеся в срок или в последний час перед сроком; фигурными скобками обозначены явления, наблюдавшиеся между сроками (за 1-3 часа до срока); квадратными скобками обозначены град или гололедные отложения с указанием их диаметра в мм.
Облачность - указаны через наклонную черту общая и нижняя облачность в баллах и высота нижней границы облаков в метрах; квадратными скобками обозначены формы облаков: Ci - перистые, Cs - перисто-слоистые, Cc - перисто-кучевые, Ac - высококучевые, As - высокослоистые, Sc - слоисто-кучевые, Ns - слоисто-дождевые, Cu - кучевые, Cb - кучево-дождевые. Подробнее классификацию облаков см. в Атласе облаков (PDF).
T - Температура воздуха - температура, измеренная на высоте 2 м над землей.
Td - Температура точки росы - температура, при понижении до которой содержащийся в воздухе водяной пар достигнет насыщения.
f - Относительная влажность воздуха - влажноcть воздуха, измеренная на высоте 2 м над землей.
Te - Эффективная температура - температура, которую ощущает одетый по сезону человек в тени. Характеристика душности погоды. При расчете учитывается влияние влажности воздуха и скорости ветра на теплоощущения человека.
Tes - Эффективная температура на солнце - температура, которую ощущает человек, с поправкой на солнечный нагрев. Характеристика знойности погоды. Зависит от высоты солнца над горизонтом, облачности и скорости ветра. Ночью, в пасмурную погоду, а также при ветре 12 м/с и более поправка равна нулю.
P - Атмосферное давление - приведенное к уровню моря атмосферное давление.
Po - Атмосферное давление - измеренное на уровне метеостанции атмосферное давление.
Tmin - Минимальная температура - минимум температуры воздуха на высоте 2 м над землей.
Tmax - Максимальная температура - максимум температуры воздуха на высоте 2 м над землей.
R - Количество осадков - Количество выпавших осадков за период времени, мм. При наведении курсора мыши на число - период времени, за который выпало указанное количество осадков.
R24 - Количество осадков - Количество выпавших осадков за 24 часа, мм.
S - Снежный покров - Высота снежного покрова, см. При наведении курсора мыши на число - состояние снежного покрова и степень покрытия местности в баллах.